TimeCST,TemperatureF,Dew PointF,Humidity,Sea Level PressureIn,VisibilityMPH,Wind Direction,Wind SpeedMPH,Gust SpeedMPH,PrecipitationIn,Events,Conditions,WindDirDegrees,DateUTC
12:00 AM,68,67,97,29.84,12,Calm,Calm,,,,Scattered Clouds,,2013-10-28 06:00:00
12:00 AM,68.0,68.0,100,30.02,6.2,Calm,Calm,-,N/A,,Partly Cloudy,0,2013-10-28 06:00:00
1:00 AM,68.0,68.0,100,29.99,6.2,North,3.5,-,N/A,,Partly Cloudy,360,2013-10-28 07:00:00
2:00 AM,68.0,66.2,94,29.98,0.3,South,3.5,-,N/A,Fog,Fog,170,2013-10-28 08:00:00
2:25 AM,66.2,66.2,100,29.97,0.3,East,2.3,-,N/A,Fog,Fog,100,2013-10-28 08:25:00
3:00 AM,67,67,98,29.85,1,,2.3,,,,Mist,,2013-10-28 09:00:00
3:00 AM,66.2,66.2,100,29.97,0.6,Variable,2.3,-,N/A,,Scattered Clouds,0,2013-10-28 09:00:00
4:00 AM,66.2,66.2,100,29.97,6.2,SE,2.3,-,N/A,Fog,Patches of Fog,130,2013-10-28 10:00:00
5:00 AM,66.2,66.2,100,29.97,6.2,East,2.3,-,N/A,Fog,Patches of Fog,100,2013-10-28 11:00:00
6:00 AM,84.2,84.2,100,29.97,6.2,NNE,3.5,-,N/A,,Scattered Clouds,30,2013-10-28 12:00:00
7:00 AM,71.6,64.4,78,30.02,6.2,Calm,Calm,-,N/A,,Scattered Clouds,0,2013-10-28 13:00:00
8:00 AM,75.2,66.2,73,30.03,6.2,WSW,4.6,-,N/A,,Scattered Clouds,240,2013-10-28 14:00:00
9:00 AM,75,67,69,29.87,12,West,6.9,,,,Partly Cloudy,260,2013-10-28 15:00:00
9:00 AM,75.2,66.2,73,30.05,6.2,West,6.9,-,N/A,,Scattered Clouds,260,2013-10-28 15:00:00
10:00 AM,77.0,68.0,74,30.04,6.2,West,9.2,-,N/A,,Scattered Clouds,260,2013-10-28 16:00:00
11:00 AM,78.8,69.8,74,30.02,6.2,SW,9.2,-,N/A,,Scattered Clouds,230,2013-10-28 17:00:00
12:00 PM,79,69,65,29.82,12,WSW,10.4,,,,Mostly Cloudy,250,2013-10-28 18:00:00
12:00 PM,78.8,69.8,74,30.00,6.2,WSW,10.4,-,N/A,,Scattered Clouds,250,2013-10-28 18:00:00
1:00 PM,75.2,68.0,78,29.97,6.2,West,11.5,-,N/A,Rain-Thunderstorm,Thunderstorms and Rain,260,2013-10-28 19:00:00
2:00 PM,73.4,71.6,94,2.99,5.0,WSW,5.8,-,N/A,Rain,Light Rain,240,2013-10-28 20:00:00
3:00 PM,71,71,99,29.80,3,WSW,11.5,,,Rain,Light Rain,250,2013-10-28 21:00:00
3:00 PM,71.6,71.6,100,-9999,3.1,WSW,11.5,-,N/A,Rain,Light Rain,250,2013-10-28 21:00:00
3:30 PM,69.8,69.8,100,29.96,0.9,SW,11.5,-,N/A,Rain,Light Rain,230,2013-10-28 21:30:00
4:00 PM,68.0,-9999,N/A,29.97,2.5,SSW,13.8,-,N/A,,Drizzle,210,2013-10-28 22:00:00
4:10 PM,-9999,68.0,N/A,-9999,2.5,SSW,12.7,-,N/A,Rain-Thunderstorm,Thunderstorms and Rain,210,2013-10-28 22:10:00
4:20 PM,68.0,68.0,100,-9999,0.6,SSW,9.2,-,N/A,Rain-Thunderstorm,Heavy Thunderstorms and Rain,200,2013-10-28 22:20:00
5:00 PM,68.0,68.0,100,-9999,1.2,West,6.9,-,N/A,Rain,Light Rain,270,2013-10-28 23:00:00
6:00 PM,68,68,100,29.85,2,North,6.9,,,Rain,Rain,0,2013-10-29 00:00:00
6:00 PM,68.0,68.0,100,3.00,1.9,North,6.9,-,N/A,Rain,Rain,360,2013-10-29 00:00:00
7:00 PM,68.0,68.0,100,30.03,5.0,NNW,4.6,-,N/A,Fog-Rain,Light Rain,340,2013-10-29 01:00:00
8:00 PM,68.0,68.0,100,30.03,5.0,ESE,4.6,-,N/A,Fog,Patches of Fog,120,2013-10-29 02:00:00
9:00 PM,68,67,96,29.87,9,East,3.5,,,,Scattered Clouds,90,2013-10-29 03:00:00
9:00 PM,68.0,68.0,100,30.03,6.2,East,3.5,-,N/A,,Mostly Cloudy,90,2013-10-29 03:00:00
10:00 PM,68.0,66.2,94,30.02,6.2,NE,5.8,-,N/A,,Mostly Cloudy,40,2013-10-29 04:00:00
11:00 PM,69.8,64.4,83,30.02,-9999.0,ENE,5.8,-,N/A,,Clear,60,2013-10-29 05:00:00